Location: Aufkirchen
(47.9603°N, 11.3653°E)
Time: 16:55:52
(UTC+01:00)

Transit 4A - Pass Details

Date: 30 November 2020
Orbit: 864 x 980 km, 66.8° (Epoch: 26 January)

Event Time Altitude Azimuth Distance (km) Brightness Sun altitude
Rises 17:59:56 0° 316° (NW) 3,675 11.4 -15.4°
Reaches altitude 10° 18:03:08 10° 301° (WNW) 2,710 11.0 -16.0°
Maximum altitude 18:07:39 21° 255° (WSW) 2,005 10.7 -16.7°
Drops below altitude 10° 18:12:04 10° 209° (SSW) 2,647 10.9 -17.4°
Sets 18:15:10 0° 194° (SSW) 3,565 11.3 -17.9°
